Terug naar catalogus

DELTA 1 DEB

ActiefSSO
NORAD 7041·DEBRIS·🇺🇸 United States

Gelanceerd Nov 6, 1973 vanaf Vandenberg Space Force Base

Loading…

Volgende Passages (komende 24 uur)

TLE

VersSource: Space-Track

Epoch: Sep 14, 2026, 12:44 UTC

1 07041U 73086AH  26257.53063047  .00000324  00000-0  26451-2 0  9995
2 07041 101.5488 276.0400 0187344  50.7433 102.5629 12.37981866365650

Volg DELTA 1 DEB in realtime met AllMySat

Download on the App Store